TimePST,TemperatureF,Dew PointF,Humidity,Sea Level PressureIn,VisibilityMPH,Wind Direction,Wind SpeedMPH,Gust SpeedMPH,PrecipitationIn,Events,Conditions,WindDirDegrees,DateUTC
12:53 AM,36.0,35.1,97,30.28,9.0,Calm,Calm,-,N/A,,Clear,0,2013-03-09 08:53:00
1:53 AM,35.1,33.1,92,30.30,9.0,Calm,Calm,-,N/A,,Clear,0,2013-03-09 09:53:00
2:53 AM,34.0,33.1,96,30.31,9.0,Calm,Calm,-,N/A,,Clear,0,2013-03-09 10:53:00
3:53 AM,34.0,32.0,92,30.32,9.0,Calm,Calm,-,N/A,,Clear,0,2013-03-09 11:53:00
4:53 AM,33.1,32.0,96,30.35,10.0,ESE,3.5,-,N/A,,Clear,110,2013-03-09 12:53:00
5:53 AM,33.1,30.9,92,30.36,10.0,Calm,Calm,-,N/A,,Clear,0,2013-03-09 13:53:00
6:37 AM,32.0,30.2,93,30.36,9.0,Calm,Calm,-,N/A,,Partly Cloudy,0,2013-03-09 14:37:00
6:53 AM,32.0,30.0,92,30.38,9.0,Calm,Calm,-,N/A,,Partly Cloudy,0,2013-03-09 14:53:00
7:53 AM,35.1,32.0,89,30.42,10.0,Calm,Calm,-,N/A,,Clear,0,2013-03-09 15:53:00
8:53 AM,39.0,35.1,86,30.44,10.0,SSE,4.6,-,N/A,,Clear,150,2013-03-09 16:53:00
9:53 AM,43.0,36.0,76,30.44,10.0,South,4.6,-,N/A,,Clear,170,2013-03-09 17:53:00
10:53 AM,45.0,37.9,76,30.45,10.0,NNW,4.6,-,N/A,,Clear,330,2013-03-09 18:53:00
11:53 AM,48.9,37.9,66,30.47,10.0,NNW,3.5,-,N/A,,Clear,330,2013-03-09 19:53:00
12:53 PM,50.0,37.9,63,30.46,10.0,NW,4.6,-,N/A,,Clear,320,2013-03-09 20:53:00
1:53 PM,54.0,34.0,47,30.45,10.0,Variable,4.6,-,N/A,,Clear,0,2013-03-09 21:53:00
2:53 PM,55.0,32.0,42,30.45,10.0,South,5.8,-,N/A,,Clear,170,2013-03-09 22:53:00
3:53 PM,55.0,28.0,35,30.45,10.0,South,8.1,-,N/A,,Clear,190,2013-03-09 23:53:00
4:53 PM,54.0,33.1,45,30.46,10.0,SSW,3.5,-,N/A,,Clear,210,2013-03-10 00:53:00
5:53 PM,52.0,36.0,54,30.47,10.0,Calm,Calm,-,N/A,,Clear,0,2013-03-10 01:53:00
6:53 PM,48.0,37.0,66,30.48,10.0,Calm,Calm,-,N/A,,Clear,0,2013-03-10 02:53:00
7:53 PM,46.9,35.1,63,30.49,10.0,Variable,3.5,-,N/A,,Clear,0,2013-03-10 03:53:00
8:53 PM,44.1,36.0,73,30.51,10.0,Calm,Calm,-,N/A,,Clear,0,2013-03-10 04:53:00
9:53 PM,42.1,35.1,76,30.51,10.0,Calm,Calm,-,N/A,,Clear,0,2013-03-10 05:53:00
10:53 PM,41.0,34.0,76,30.52,10.0,SE,3.5,-,N/A,,Clear,140,2013-03-10 06:53:00
11:53 PM,39.9,34.0,79,30.52,10.0,Calm,Calm,-,N/A,,Clear,0,2013-03-10 07:53:00